Weather in Pronino

Russia / Tver Oblast     58°27′47″N   37°08′21″E
temp.,
°C
wind,
m/s
gust,
m/s
humid.,
%
clouds,
%
prec.,
mm/h
press.,
hPa
HPBL,
m
28 january, thu
thu2800:00−5ssw379465 0.0 1005194
03:00−7sw239536 0.0 100663
06:00−5ssw229964 0.0 100790
09:00−3se129781 0.0 1008131
12:00−2ese2494100 0.1 1008306
15:00−3e3596100 0.1 1007276
18:00−4e3897100 0.2 1006324
21:00−3e4997100 1.4 1004365
29 january, fri
fri2900:000ese3899100 1.1 1002329
03:00−1se4997100 1.6 1001398
06:00−1ese41097100 0.6 999495
09:00−2ese41194100 1.0 998453
12:000se51094100 0.3 996550
15:00−1ese5994100 0.4 995635
18:00−1ese51196100 0.3 994654
21:00−4se3128983 0.8 993537
30 january, sat
sat3000:00−5se4129356 0.0 992593
03:00−3sse499379 0.2 992644
06:00−5sse31094100 0.1 991389
09:00−8sse279693 0.1 991179
12:00−5sse489194 0.0 992487
15:00−6sse389270 0.0 992469
18:00−7sse399398 0.1 992412
21:00−6s31093100 0.1 993459
31 january, sun
sun3100:00−8s399391 0.1 994326
03:00−9s389483 0.1 994249
06:00−10sse2696100 0.0 993182
09:00−11se239798 0.1 99370
12:00−8ese129699 0.0 992119
15:00−7ne1296100 0.1 991159
18:00−8nw1297100 0.1 99140
21:00−10w2395100 0.1 99250
1 february, mon
mon100:00−11wsw389680 0.0 995172
03:00−10sw4109453 0.0 998260
06:00−8sw4119382 0.0 999350
09:00−8sw4119380 0.0 1002364
12:00−7ssw499178 0.0 1004423
15:00−7s499277 0.0 1004427
18:00−10s399591 0.0 1004229
21:00−11s269681 0.0 1003132